Simultaneous Nadir Overpasses (SNOs) Predictions

Prediction of SNOs between GOES-15 and TERRA Satellite Orbit:

Table of predicted SNOs for the next 14.0 days since TLE Epoch: 6/8/2024
Index Date Time (GOES-15) GOES-15 Lat,Lon TERRA Lat,Lon Distance(km) Time Diff (sec)
1 06/09/2024 05:27:45 -0.19, 61.42 -0.84, 64.48 348.25 80
2 06/09/2024 17:50:29 0.17, 61.43 -0.19, 59.60 207.08 80
3 06/11/2024 17:30:25 0.19, 61.40 0.68, 63.80 272.02 80
4 06/12/2024 05:52:58 -0.16, 61.38 0.37, 58.96 274.96 80
5 06/14/2024 05:32:54 -0.18, 61.35 -0.54, 63.15 204.18 80
6 06/14/2024 17:55:38 0.15, 61.37 -0.47, 58.27 351.29 80
7 06/16/2024 17:35:33 0.17, 61.35 0.43, 62.47 128.04 80
8 06/17/2024 05:58:07 -0.14, 61.32 0.62, 57.64 418.62 80
9 06/19/2024 05:38:01 -0.16, 61.31 -0.24, 61.84 59.91 80
10 06/19/2024 18:00:44 0.13, 61.33 -0.78, 56.97 496.06 80
11 06/21/2024 17:43:18 0.14, 61.33 0.13, 61.17 18.24 80
